Location: Newark
(47.4833°N, 7.5167°E)
Time: 10:38:55
(UTC+00:00)

Envisat - Visible Passes

Search period start: 23 October 2019 00:00
Search period end: 02 November 2019 00:00
Orbit: 764 x 766 km, 98.1° (Epoch: 23 October)

Date Brightness Start Highest point End Pass type
(mag) Time Alt. Az. Time Alt. Az. Time Alt. Az.
23 Oct 3.0 17:20:29 10° SSE 17:25:34 81° ENE 17:30:41 10° NNW visible
23 Oct 6.0 19:02:27 10° WSW 19:05:13 15° W 19:07:59 10° NW visible
24 Oct 5.9 05:26:48 10° NE 05:30:43 22° E 05:34:37 10° SE visible
24 Oct 5.0 18:23:37 10° SSW 18:28:03 30° W 18:32:30 10° NNW visible
25 Oct 6.7 04:52:53 10° ENE 04:53:27 10° E 04:54:00 10° E visible
25 Oct 3.5 17:46:04 10° S 17:51:04 62° WSW 17:56:09 10° NNW visible
26 Oct 3.0 17:09:18 10° SSE 17:14:19 65° ENE 17:19:22 10° N visible
26 Oct 5.7 18:50:22 10° SW 18:53:48 18° W 18:57:16 10° NW visible
27 Oct 6.1 05:15:55 10° NE 05:19:20 18° E 05:22:44 10° SE visible
27 Oct 4.6 18:12:01 10° SSW 18:16:42 37° W 18:21:25 10° NNW visible
28 Oct 3.2 17:34:43 10° S 17:39:47 77° WSW 17:44:55 10° NNW visible
28 Oct 6.3 19:18:51 10° W 19:19:41 10° W 19:20:31 10° WNW visible
29 Oct 3.1 16:58:09 10° SE 17:03:05 53° ENE 17:08:02 10° N visible
29 Oct 5.4 18:38:29 10° SW 18:42:25 22° W 18:46:23 10° NW visible
30 Oct 6.2 05:05:13 10° NE 05:07:56 14° E 05:10:37 10° ESE visible
30 Oct 4.1 18:00:31 10° S 18:05:22 45° W 18:10:16 10° NNW visible
31 Oct 3.0 17:23:27 10° SSE 17:28:31 87° E 17:33:38 10° NNW visible
31 Oct 6.1 19:05:50 10° WSW 19:08:15 13° W 19:10:40 10° WNW visible
01 Nov 5.7 05:29:38 10° NE 05:33:44 24° E 05:37:48 10° SE visible
01 Nov 3.3 16:47:06 10° SE 16:51:52 43° ENE 16:56:40 10° N visible
01 Nov 5.1 18:26:45 10° SSW 18:31:03 27° W 18:35:23 10° NW visible
